Location: Prague
(50.0830°N, 14.4670°E)
Time: 14:48:08
(UTC+01:00)

ITUPSAT 1 - Pass Details

Date: 04 December 2021
Orbit: 700 x 713 km, 98.6° (Epoch: 26 January)

Event Time Altitude Azimuth Distance (km) Brightness Sun altitude
Rises 05:05:32 0° 112° (ESE) 3,099 ? -24.3°
Reaches altitude 10° 05:08:36 10° 91° (E) 2,187 ? -23.8°
Maximum altitude 05:11:23 16° 55° (NE) 1,834 ? -23.3°
Drops below altitude 10° 05:14:12 10° 19° (NNE) 2,200 ? -22.9°
Sets 05:17:17 0° 358° (N) 3,126 ? -22.4°
